Temp
73 71 70 70 69 67 67 68 70 69 71 71 71 71 71 70 69 70 69 69 68 68
72 71 70 70 69 67 71 73 70 70 70 71 71 70 69 68 68 69 69 69 68 67
72 71 71 70 68 68 72 71 69 69 69 69 69 69 69 69 70 69 68 68 68 67
72 72 71 69 68 70 72 71 68 69 70 69 68 68 67 66 67 67 68 68 68 68
72 71 70 69 73 73 71 68 68 67 70 68 67 67 66 66 64 62 63 63 64 66
70 70 69 69 72 72 69 67 68 67 66 66 66 66 65 66 65 64 63 63 63 63
70 70 69 68 69 71 69 67 67 66 65 64 64 68 67 66 64 62 61 60 60 59
70 70 69 68 70 73 70 67 66 65 64 64 64 65 64 67 64 61 59 59 60 60
71 71 69 68 70 70 68 66 64 63 62 61 63 59 62 67 67 65 61 59 59 59
72 71 70 68 69 69 68 66 63 62 61 57 56 58 59 64 64 61 60 59 59 62
71 70 67 66 66 68 68 67 62 60 59 56 56 56 57 63 60 58 56 56 58 55
70 68 67 65 65 67 67 67 65 63 59 55 53 54 54 60 59 57 55 54 54 55
67 68 66 66 65 67 67 65 65 62 57 58 53 52 52 58 59 55 54 53 53 56
62 65 67 66 65 65 64 62 62 59 57 53 51 52 51 53 58 59 56 53 51 51
MSLP
1014.84 1015.30 1015.64 1015.65 1016.09 1016.37 1016.21 1015.87 1015.61 1015.24 1014.56 1014.11 1013.68 1013.75 1013.70 1013.67 1013.68 1013.55 1013.63 1014.01 1014.34 1014.60
1015.22 1015.44 1015.66 1016.01 1016.19 1016.31 1016.25 1016.01 1015.81 1015.35 1014.85 1014.54 1014.25 1014.10 1013.99 1013.98 1013.86 1013.71 1013.82 1014.12 1014.37 1014.63
1015.50 1015.57 1015.64 1015.97 1016.40 1016.42 1016.32 1016.15 1015.92 1015.62 1015.29 1015.10 1014.87 1014.59 1014.42 1014.38 1014.33 1014.12 1014.30 1014.42 1014.66 1014.84
1015.63 1015.69 1015.88 1015.96 1016.49 1016.51 1016.46 1016.36 1016.13 1015.80 1015.70 1015.53 1015.42 1015.23 1015.06 1015.05 1015.14 1014.96 1014.95 1015.04 1015.12 1015.16
1015.55 1015.83 1016.11 1016.25 1016.30 1016.62 1016.60 1016.56 1016.47 1016.23 1016.25 1016.20 1016.03 1015.94 1015.84 1015.82 1015.93 1015.87 1015.93 1016.07 1015.94 1015.87
1015.60 1015.95 1016.26 1016.27 1016.33 1016.71 1016.78 1016.87 1016.83 1016.82 1016.88 1016.91 1016.73 1016.66 1016.68 1016.68 1016.65 1016.69 1016.74 1016.78 1016.73 1016.70
1015.51 1015.85 1016.36 1016.45 1016.50 1016.80 1016.99 1017.27 1017.16 1017.38 1017.53 1017.49 1017.36 1017.33 1017.29 1017.29 1017.25 1017.40 1017.56 1017.58 1017.60 1017.68
1015.42 1015.82 1016.24 1016.49 1016.79 1016.99 1017.28 1017.56 1017.70 1017.89 1018.01 1018.05 1017.97 1017.94 1017.75 1017.71 1017.82 1017.93 1018.16 1018.23 1018.21 1018.22
1015.37 1016.00 1016.38 1016.63 1017.05 1017.31 1017.56 1017.79 1018.13 1018.45 1018.55 1018.64 1018.80 1018.39 1018.09 1017.97 1018.08 1018.30 1018.54 1018.88 1019.00 1019.04
1014.90 1015.70 1016.02 1016.43 1017.00 1017.63 1017.83 1018.07 1018.48 1018.79 1019.03 1019.32 1019.25 1018.87 1018.63 1018.62 1018.77 1018.90 1018.97 1019.17 1019.35 1019.52
1014.81 1015.36 1015.86 1016.49 1016.85 1017.55 1017.95 1018.26 1018.75 1019.09 1019.41 1019.66 1019.79 1019.38 1019.16 1019.12 1019.26 1019.56 1019.72 1019.76 1019.89 1019.99
1015.17 1015.40 1015.82 1016.70 1017.09 1017.48 1017.98 1018.34 1018.79 1019.23 1019.66 1019.97 1020.11 1019.86 1019.62 1019.60 1019.72 1020.15 1020.43 1020.43 1020.55 1020.57
1014.89 1015.28 1015.88 1016.45 1016.87 1017.31 1017.85 1018.37 1018.92 1019.50 1020.05 1020.39 1020.43 1020.20 1019.83 1019.72 1019.98 1020.64 1021.04 1021.05 1021.03 1021.07
1015.78 1015.76 1015.97 1016.56 1017.07 1017.58 1018.25 1018.77 1019.37 1019.93 1020.55 1020.91 1021.04 1020.76 1020.26 1020.06 1020.03 1020.50 1021.16 1021.49 1021.51 1021.44
Wind_Speed
8 5 3 6 5 4 4 3 5 6 5 7 6 5 5 2 2 3 3 5 4 3
6 6 5 7 6 4 3 3 6 6 7 8 7 5 5 4 5 3 2 3 2 1
6 6 6 7 6 5 4 5 6 6 7 8 9 9 8 8 8 8 4 3 3 1
6 4 6 8 5 4 3 6 5 6 7 9 10 9 10 11 11 11 11 11 9 9
7 5 7 7 6 5 5 6 6 6 8 8 10 10 11 11 11 11 12 10 10 9
7 6 6 6 7 5 6 6 6 6 7 7 7 8 9 10 10 10 10 9 9 8
7 7 7 6 7 5 7 5 6 7 6 7 7 7 8 8 7 8 8 8 8 7
7 7 7 7 7 5 6 6 7 7 7 6 7 6 5 5 6 7 7 7 8 7
8 9 8 7 7 5 5 7 7 7 6 7 6 11 10 5 5 6 6 6 5 6
10 11 10 9 8 5 4 6 7 6 6 7 6 12 12 10 8 7 7 7 6 7
8 9 9 7 9 7 4 6 6 6 6 6 6 12 13 11 8 7 7 7 7 7
5 8 8 7 8 8 5 4 5 5 6 7 6 11 9 5 6 7 7 6 7 6
6 7 9 8 8 7 5 6 7 9 7 8 6 11 10 5 5 6 4 5 6 11
7 6 8 7 5 5 7 7 8 9 7 7 7 7 12 10 5 6 5 4 3 4
Wind_Direction
63 83 86 62 83 55 29 346 347 311 334 7 23 26 28 19 315 259 194 194 197 201
97 96 88 90 82 66 341 358 338 347 22 24 17 36 38 30 19 34 111 159 194 219
115 116 94 101 91 67 354 28 13 19 28 37 32 30 34 37 29 40 44 73 116 219
125 116 101 106 112 82 48 43 40 35 36 43 43 36 46 45 35 50 54 49 49 32
116 111 102 106 99 82 75 49 58 39 47 52 57 50 48 50 42 42 42 34 39 38
123 108 107 105 100 80 75 57 65 54 56 42 53 60 57 60 58 57 56 44 43 34
132 127 111 100 90 87 82 64 66 60 71 58 44 54 68 69 58 57 55 53 49 34
136 115 113 101 83 73 85 72 68 66 57 59 52 40 44 92 94 79 63 49 59 55
137 129 123 108 105 85 81 90 78 68 67 57 47 16 31 65 71 91 102 95 74 65
149 143 139 134 117 108 114 100 93 82 73 60 26 21 27 43 62 55 51 68 79 67
153 143 136 129 131 127 123 106 111 107 98 78 27 18 24 83 83 68 52 51 68 71
169 142 140 130 127 128 133 123 119 121 101 89 35 16 21 71 95 86 72 60 49 52
16 127 139 153 141 140 142 118 111 94 73 75 54 11 10 89 114 107 91 66 60 41
23 48 131 117 118 123 112 107 98 89 69 57 30 17 25 41 97 145 117 90 57 33